Regional Weather Roundup
Issued by NWS Sioux Falls, SD

Home | Current Version | Previous Version | Text Only | Print | Product List | Glossary On
Versions: 1 2 3 4 5 6 7 8 9 10 11 12 13 14 15 16 17 18 19 20 21 22 23 24 25 26 27 28 29 30 31 32 33 34 35 36 37 38 39 40 41 42 43 44 45 46 47 48 49 50
000
ASUS43 KFSD 231902
RWRFSD

WEATHER ROUNDUP FOR SE SOUTH DAKOTA/SW MINNESOTA/NW IOWA
NATIONAL WEATHER SERVICE SIOUX FALLS SD
100 PM CST SUN NOV 23 2014

NOTE: "FAIR" INDICATES FEW OR NO CLOUDS BELOW 12,000 FEET WITH NO
SIGNIFICANT WEATHER AND OR OBSTRUCTIONS TO VISIBILITY.


SDZ038>040-050-052>070-232000-
SOUTHEAST SOUTH DAKOTA

CITY           SKY/WX    TMP DP  RH WIND       PRES   REMARKS
CHAMBERLAIN    NOT AVBL
HURON          CLOUDY    41  32  70 NW18      29.56F
MADISON        FAIR      39  36  87 NW23G30   29.52S
MITCHELL       CLOUDY    45  31  58 NW24      29.57
SIOUX FALLS    CLOUDY    41  35  79 NW16      29.52F
WINNER         MOCLDY    46  26  45 NW33G40   29.63F
YANKTON        CLOUDY    43  32  65 NW23G29   29.55F
$$

MNZ071-072-080-081-089-090-097-098-232000-
SOUTHWEST MINNESOTA

CITY           SKY/WX    TMP DP  RH WIND       PRES   REMARKS
FAIRMONT       CLOUDY    45  37  76 NW14      29.42S
JACKSON        CLOUDY    43  37  81 NW24G31   29.45S
LUVERNE        CLOUDY    41  36  81 NW15      29.51S
MARSHALL       CLOUDY    39  34  81 NW14      29.49F
MONTEVIDEO     DRIZZLE   37  37 100 NW9       29.48F
PIPESTONE      CLOUDY    37  36  93 NW12G20   29.49F
REDWOOD FALLS  LGT RAIN  40  38  93 NW10      29.46F
TRACY          LGT RAIN  41  39  92 NW16      29.48F
WINDOM         CLOUDY    43  39  87 NW17G25   29.46S
WORTHINGTON    CLOUDY    39  37  93 NW18G24   29.48S
$$

IAZ001>003-012>014-020>022-031-032-NEZ013-014-SDZ071-232000-
NORTHWEST IOWA

CITY           SKY/WX    TMP DP  RH WIND       PRES   REMARKS
CHEROKEE       CLOUDY    43  39  84 NW21G31   29.48S
DENISON        CLOUDY    46  41  81 NW20G31   29.43F
ESTHERVILLE    CLOUDY    47  41  80 NW17      29.43S
LE MARS        MIX PCPN  43  37  81 NW18G28   29.50F
ORANGE CITY    LGT RAIN  43  37  81 NW18G28     N/A
SHELDON        CLOUDY    41  39  93 NW20G28   29.47F
SIOUX CITY     CLOUDY    44  36  73 NW26G39   29.49F
SPENCER        CLOUDY    45  39  79 NW20G30   29.45F
STORM LAKE     CLOUDY    43  39  87 NW24G33   29.45F
$$

ABBREVIATIONS USED IN REMARKS
   TC - TEMPERATURE IN CELSIUS
  WCI - WIND CHILL INDEX
   HX - HEAT INDEX
  VSB - VISIBILITY



USA.gov is the U.S. government's official web portal to all federal, state and local government web resources and services.